T 1999 July 24.43671 TT                                 Nakano

q   2.2503611            (2000.0)            P               Q

                   Peri.   56.63606     +0.29508775     +0.69194664

                   Node   245.44133     -0.91914515     +0.39391378

e   1.0            Incl.   46.42076     +0.26095098     +0.60501387

From 52 observations 1999 May 20-June 8.

 



    C/1999 K6 (LINEAR) 

T 1999 July 23.68095 TT                                 Nakano

q   2.2522045            (2000.0)            P               Q

                   Peri.   56.33476     +0.29138213     +0.69397900

                   Node   245.41344     -0.92133500     +0.38876433

e   1.0            Incl.   46.38953     +0.25736796     +0.60601605

From 36 observations 1999 May 20-25.





–ß‚è‚Ü‚·B